Weather

DAILY 7 DAY TOTAL
onrain

Note: Some stations are located near irrigated fields and may also report irrigation

Alliston Mount Forest Blyth Guelph Grand Bend Strathroy Woodstock Belmont Simcoe Leamington Chatham West Lorne






Rockwood-Bayer - Historical Weather Data
Date Max Temp (°C) Min Temp (°C) Avg Temp (°C) Rain (mm) 7Day Rain(mm) Total Rain(mm) Avg RH (%)
5/22/2019 18.3 3.4 9.3 0.6 3.8 71.8 78.9
5/21/2019 23.2 0.5 10.5 0.0 3.2 71.2 74.0
5/20/2019 14.4 3.1 10.5 0.0 4.4 71.2 89.1
5/19/2019 28.7 5.6 16.2 3.0 18.2 71.2 76.0
5/18/2019 18.3 2.5 10.0 0.0 20.2 68.2 76.4
5/17/2019 24.2 6.5 12.8 0.0 20.2 68.2 83.6
5/16/2019 23.7 2.8 11.7 0.2 27.2 68.2 81.4
5/15/2019 23.8 0.9 11.1 0.0 39.6 68.0 81.0
5/14/2019 16.8 2.3 8.3 1.2 39.6 68.0 86.8
5/13/2019 12.6 3.4 6.2 13.8 38.8 66.8 97.7
5/12/2019 11.9 3.7 6.3 5.0 25.0 53.0 92.6
5/11/2019 22.0 -2.7 6.9 0.0 20.2 48.0 83.3
5/10/2019 15.6 0.8 9.0 7.0 20.2 48.0 93.6
5/9/2019 19.3 4.7 11.2 12.6 23.4 41.0 77.6
5/8/2019 23.2 -0.2 9.3 0.0 11.0 28.4 65.5
5/7/2019 18.7 1.0 9.3 0.4 28.4 28.4 74.7
5/6/2019 22.2 2.6 11.7 0.0 29.6 28.0 84.0
5/5/2019 28.8 2.4 12.9 0.2 31.8 28.0 79.1
5/4/2019 15.4 4.7 9.2 0.0 31.6 27.8 93.5
5/3/2019 15.2 5.1 8.6 10.2 31.6 27.8 95.3
5/2/2019 22.8 4.6 10.3 0.2 42.8 17.6 87.8
5/1/2019 8.9 2.7 5.7 17.4 42.8 17.4 98.6